Weather History for Walla Walla, WA

Change the Weather History Date:

Wednesday, March 27, 2013

  Actual Average Record
Temperature  
Mean Temperature 54 °F -  
Max Temperature 63 °F 57 °F 75 °F (1952)
Min Temperature 44 °F 38 °F 23 °F (1975)
Degree Days  
Heating Degree Days 12    
Growing Degree Days 4 (Base 50)    
Moisture  
Dew Point 44 °F    
Average Humidity 77    
Maximum Humidity 93    
Minimum Humidity 50    
Precipitation  
Precipitation 0.19 in - - ()
Sea Level Pressure  
Sea Level Pressure 29.96 in    
Wind  
Wind Speed 4 mph (ENE)    
Max Wind Speed 14 mph    
Max Gust Speed 21 mph    
Visibility 8 miles    
Events Rain , Thunderstorm    
Averages and records for this station are not official NWS values.
T = Trace of Precipitation, MM = Missing Value Source: NWS Daily Summary

Daily Weather History Graph

Daily Weather History Graph

Search for Another Location

Airport:

Trip Planner

Search our weather history database for the weather conditions in past years. The results will help you decide how hot, cold, wet, or windy it might be!

Date:

Astronomy

Mar. 27, 2013 Rise Set
Actual Time 6:41 AM PDT 7:15 PM PDT
Civil Twilight 6:11 AM PDT 7:45 PM PDT
Nautical Twilight 5:36 AM PDT 8:21 PM PDT
Astronomical Twilight 4:59 AM PDT 8:58 PM PDT
Moon 8:09 PM PDT (3/27) 6:32 AM PDT (3/27)
Length of Visible Light 13h 33m
Length of Day
12h 33m
Full, 100% of the Moon is Illuminated
Mar 27
Full
Apr 2
Last Quarter
Apr 10
New
Apr 18
First Quarter
Apr 25
Full

Hourly Weather History & Observations

Time (PDT) Temp. Windchill Dew Point Humidity Pressure Visibility Wind Dir Wind Speed Gust Speed Precip Events Conditions
12:53 AM 48.9 °F - 39.9 °F 71% 29.95 in 10.0 mi ESE 3.5 mph - 0.00 in   Overcast
1:53 AM 48.0 °F - 41.0 °F 77% 29.94 in 10.0 mi East 8.1 mph - N/A   Overcast
2:53 AM 48.9 °F - 42.1 °F 77% 29.94 in 10.0 mi Calm Calm - 0.02 in   Overcast
3:53 AM 46.9 °F - 43.0 °F 86% 29.95 in 10.0 mi SSE 3.5 mph - N/A   Overcast
4:53 AM 46.9 °F - 41.0 °F 80% 29.95 in 10.0 mi SSE 3.5 mph - N/A   Overcast
5:53 AM 46.0 °F 43.1 °F 41.0 °F 83% 29.95 in 10.0 mi East 5.8 mph - 0.00 in Rain Light Rain
6:53 AM 46.0 °F 43.9 °F 42.1 °F 86% 29.97 in 9.0 mi SW 4.6 mph - 0.01 in Rain Light Rain
7:13 AM 44.6 °F 43.1 °F 42.8 °F 93% 29.96 in 1.8 mi West 3.5 mph - 0.03 in Rain Heavy Rain
7:21 AM 44.6 °F 42.2 °F 42.8 °F 93% 29.97 in 3.0 mi West 4.6 mph - 0.04 in Rain Light Rain
7:43 AM 44.6 °F - 42.8 °F 93% 29.97 in 1.8 mi Calm Calm - 0.07 in Rain Heavy Rain
7:53 AM 45.0 °F 43.5 °F 43.0 °F 93% 29.97 in 1.5 mi NE 3.5 mph - 0.11 in Rain Heavy Rain
8:03 AM 44.6 °F 42.2 °F 42.8 °F 93% 29.96 in 2.5 mi ENE 4.6 mph - 0.02 in Rain Rain
8:11 AM 44.6 °F 41.4 °F 42.8 °F 93% 29.97 in 4.0 mi ENE 5.8 mph - 0.03 in Rain Rain
8:53 AM 46.9 °F - 43.0 °F 86% 29.98 in 10.0 mi Calm Calm - 0.04 in   Overcast
9:53 AM 48.0 °F - 44.1 °F 86% 29.98 in 10.0 mi Calm Calm - 0.01 in Rain Light Rain
10:28 AM - - - N/A% 29.96 in 1.2 mi NNW 5.8 mph - 0.00 in   Partly Cloudy
10:30 AM - - - N/A% 29.96 in 5.0 mi NNW 5.8 mph - 0.00 in   Haze
10:53 AM - - - N/A% 29.97 in 10.0 mi NNW 3.5 mph - 0.00 in   Clear
11:53 AM 53.1 °F - 46.0 °F 77% 29.98 in 10.0 mi Calm Calm - N/A   Overcast
12:53 PM 55.9 °F - 46.0 °F 69% 29.97 in 10.0 mi Calm Calm - 0.00 in Rain Light Rain
1:53 PM 57.9 °F - 45.0 °F 62% 29.96 in 10.0 mi Calm Calm - 0.00 in   Scattered Clouds
2:53 PM 60.1 °F - 46.0 °F 60% 29.94 in 10.0 mi Calm Calm - N/A   Partly Cloudy
3:53 PM 62.1 °F - 44.1 °F 52% 29.93 in 10.0 mi Calm Calm - N/A   Clear
4:53 PM 63.0 °F - 44.1 °F 50% 29.92 in 10.0 mi NE 5.8 mph - N/A   Clear
5:53 PM 60.1 °F - 45.0 °F 57% 29.92 in 10.0 mi North 5.8 mph - N/A   Clear
6:53 PM 59.0 °F - 48.0 °F 67% 29.93 in 10.0 mi NNE 4.6 mph - N/A   Clear
7:53 PM 55.0 °F - 46.9 °F 74% 29.94 in 10.0 mi NNE 6.9 mph - N/A Thunderstorm Overcast
8:10 PM 55.4 °F - 46.4 °F 72% 29.95 in 10.0 mi SSE 13.8 mph 20.7 mph N/A   Overcast
8:53 PM 54.0 °F - 44.1 °F 69% 29.96 in 10.0 mi SE 8.1 mph - N/A   Overcast
9:53 PM 50.0 °F - 44.1 °F 80% 29.96 in 10.0 mi ENE 6.9 mph - N/A   Clear
10:53 PM 51.1 °F - 44.1 °F 77% 29.95 in 10.0 mi ESE 5.8 mph - N/A   Overcast
11:53 PM 51.1 °F - 45.0 °F 80% 29.98 in 10.0 mi ESE 4.6 mph - N/A   Overcast